"Pseudo-MPEC" for P21jWAx

Created 2021 Sep 20 17:07:12 UT using Find_Orb

Click here for an explanation of pseudo-MPECs

 
 Astrometry: 
     P21jWAx  C2021 08 31!SAstrometry65vVq9(kqDK=redacted;DeOs6F(eO2*P%jSgq,#F52
     P21jWAx  C2021 08 31`)4WvHm:M09992)`nI5'S?`w59d`hG)clickXYr[M3bhere7L!Q^F52
     P21jWAx  C2021 08 31_k-.Zh;forTN8ihW*hyQKUc*Mx1`a#2explanation.KUyXc3FXgF52

Station data:
(F52) Pan-STARRS 2, Haleakala  (N20.707384 W156.255910)  US/Hawaii. 1.8-m
   Ritchey-Chrétien + CCD.

Orbital elements:  P21jWAx
   Perihelion 2023 Feb 22.961473 +/- 366.805 TT = 23:04:31 (JD 2459998.461473)
Epoch 2021 Aug 31.0 TT = JDT 2459457.5                        AutoNEOCP
M 264.91286951 +/- 108.00546        (J2000 ecliptic)
n   0.17577431 +/- 0.346595         Peri.  214.89455 +/- 65.220217
a   3.15620918 +/- 4.1489           Node   198.79595 +/- 60.289684
e   0.3437236 +/- 0.216717          Incl.   26.59199 +/- 24.883855
P   5.61                   H 15.9   G  0.15   U 12.0  SR
q 2.07134553 +/- 1.67523    Q 4.24107282 +/- 71.4948
From 3 observations 2021 Aug. 31 (39.1 min); mean residual 0".03
Residuals in arcseconds: 
210831 F52  .04+  .01-    210831 F52  .06-  .01+    210831 F52  .02+  .00     

Ephemerides (geocentric):
Date (UTC) HH   RA              Dec         delta   r     elong  mag " sig PA
---- -- -- --  -------------   -----------  ------ ------ -----  --- ---- ---
2021 09 20 17  17 49 13.894   +04 17 30.48  3.3913 3.5266  89.4 22.2 3051   9
2021 09 20 18  17 49 15.119   +04 17 13.49  3.3917 3.5264  89.4 22.2 3062   9
2021 09 20 19  17 49 16.346   +04 16 56.50  3.3921 3.5263  89.3 22.2 3072   9
2021 09 20 20  17 49 17.575   +04 16 39.52  3.3926 3.5262  89.3 22.2 3083   9
2021 09 20 21  17 49 18.806   +04 16 22.53  3.3930 3.5261  89.3 22.2 3093   9
2021 09 20 22  17 49 20.038   +04 16 05.56  3.3934 3.5260  89.2 22.2 3104   9
2021 09 20 23  17 49 21.272   +04 15 48.58  3.3938 3.5259  89.2 22.2 3115   9
2021 09 21 00  17 49 22.508   +04 15 31.61  3.3943 3.5257  89.2 22.2 3125   9
2021 09 21 01  17 49 23.745   +04 15 14.65  3.3947 3.5256  89.1 22.2 3136   9
2021 09 21 02  17 49 24.984   +04 14 57.68  3.3951 3.5255  89.1 22.2 3147   9
2021 09 21 03  17 49 26.224   +04 14 40.72  3.3955 3.5254  89.1 22.2 3157   9
2021 09 21 04  17 49 27.467   +04 14 23.77  3.3960 3.5253  89.1 22.2 3168   9
2021 09 21 05  17 49 28.711   +04 14 06.82  3.3964 3.5252  89.0 22.2 3179   9
2021 09 21 06  17 49 29.957   +04 13 49.87  3.3968 3.5250  89.0 22.2 3190   9
2021 09 21 07  17 49 31.204   +04 13 32.93  3.3972 3.5249  89.0 22.2 3200   9
2021 09 21 08  17 49 32.453   +04 13 15.98  3.3976 3.5248  88.9 22.2 3211   9
2021 09 21 09  17 49 33.704   +04 12 59.05  3.3981 3.5247  88.9 22.2 3222   9
2021 09 21 10  17 49 34.956   +04 12 42.12  3.3985 3.5246  88.9 22.2 3233   9
2021 09 21 11  17 49 36.210   +04 12 25.19  3.3989 3.5245  88.8 22.2 3244  10
2021 09 21 12  17 49 37.466   +04 12 08.26  3.3993 3.5243  88.8 22.2 3255  10
2021 09 21 13  17 49 38.724   +04 11 51.34  3.3998 3.5242  88.8 22.2 3266  10
2021 09 21 14  17 49 39.983   +04 11 34.42  3.4002 3.5241  88.7 22.2 3277  10
2021 09 21 15  17 49 41.244   +04 11 17.51  3.4006 3.5240  88.7 22.2 3288  10
2021 09 21 16  17 49 42.506   +04 11 00.60  3.4010 3.5239  88.7 22.2 3299  10
2021 09 21 17  17 49 43.770   +04 10 43.69  3.4015 3.5238  88.7 22.2 3310  10
2021 09 21 18  17 49 45.036   +04 10 26.79  3.4019 3.5236  88.6 22.2 3321  10
2021 09 21 19  17 49 46.304   +04 10 09.89  3.4023 3.5235  88.6 22.2 3332  10
2021 09 21 20  17 49 47.573   +04 09 53.00  3.4027 3.5234  88.6 22.2 3343  10
2021 09 21 21  17 49 48.844   +04 09 36.11  3.4032 3.5233  88.5 22.2 3354  10
2021 09 21 22  17 49 50.117   +04 09 19.22  3.4036 3.5232  88.5 22.2 3365  10
2021 09 21 23  17 49 51.391   +04 09 02.34  3.4040 3.5231  88.5 22.2 3376  10
2021 09 22 00  17 49 52.667   +04 08 45.46  3.4044 3.5229  88.4 22.2 3388  10
2021 09 22 01  17 49 53.944   +04 08 28.59  3.4049 3.5228  88.4 22.2 3399  10
2021 09 22 02  17 49 55.224   +04 08 11.72  3.4053 3.5227  88.4 22.2 3410  10
2021 09 22 03  17 49 56.505   +04 07 54.85  3.4057 3.5226  88.3 22.2 3421  10
2021 09 22 04  17 49 57.787   +04 07 37.99  3.4061 3.5225  88.3 22.2 3433  10
2021 09 22 05  17 49 59.071   +04 07 21.13  3.4066 3.5224  88.3 22.2 3444  10
2021 09 22 06  17 50 00.357   +04 07 04.27  3.4070 3.5222  88.3 22.2 3455  10
2021 09 22 07  17 50 01.645   +04 06 47.42  3.4074 3.5221  88.2 22.2 3467  10
2021 09 22 08  17 50 02.934   +04 06 30.57  3.4078 3.5220  88.2 22.2 3478  10
2021 09 22 09  17 50 04.225   +04 06 13.73  3.4083 3.5219  88.2 22.2 3490  10
2021 09 22 10  17 50 05.518   +04 05 56.89  3.4087 3.5218  88.1 22.2 3501  11
2021 09 22 11  17 50 06.812   +04 05 40.06  3.4091 3.5217  88.1 22.2 3513  11
2021 09 22 12  17 50 08.108   +04 05 23.23  3.4095 3.5215  88.1 22.2 3524  11
2021 09 22 13  17 50 09.406   +04 05 06.40  3.4100 3.5214  88.0 22.2 3536  11
2021 09 22 14  17 50 10.705   +04 04 49.58  3.4104 3.5213  88.0 22.2 3547  11
2021 09 22 15  17 50 12.006   +04 04 32.76  3.4108 3.5212  88.0 22.2 3559  11
2021 09 22 16  17 50 13.308   +04 04 15.94  3.4112 3.5211  87.9 22.2 3570  11